Location: Rounton
(54.4000°N, 1.3500°W)
Time: 22:47:52
(UTC+00:00)

Explorer 7 - Pass Details

Date: 07 December 2021
Orbit: 483 x 674 km, 50.3° (Epoch: 17 January)

Event Time Altitude Azimuth Distance (km) Brightness Sun altitude
Rises 05:22:55 0° 228° (SW) 2,847 - -23.1°
Reaches altitude 10° 05:25:28 10° 217° (SW) 1,910 - -22.7°
Exits shadow 05:27:32 22° 196° (SSW) 1,277 8.6 -22.4°
Maximum altitude 05:29:14 29° 157° (SSE) 1,043 8.5 -22.2°
Drops below altitude 10° 05:32:50 10° 96° (E) 1,810 10.6 -21.7°
Sets 05:35:11 0° 85° (E) 2,671 11.7 -21.3°
